When you browse on this site, cookies collect data to enhance your experience and personalize the content and advertising you see.
Visit our Privacy Policy to learn more. By continuing to use the site, you agree to this use of cookies and data.
  • în România
  • Lista ţărilor
  • Pe 7 zile
  • Temperatura apei
  • Hartă satelitară
  • Meteo pe hartă
  • Widget-uri
  • user-avatar
    Intrare

    Meteo pe oră la Penonomé

    Astăzi, 19 Iulie, Vineri

    Timp Temperatura Precipitaţii Vânt Presiune Umiditate
    00:00 +26°C° 0 mm 2 m/s 748 mmHg 91%
    01:00 +26°C° 0 mm 2 m/s 748 mmHg 92%
    02:00 +26°C° 0 mm 2 m/s 748 mmHg 92%
    03:00 +26°C° 0 mm 2 m/s 748 mmHg 92%
    04:00 +26°C° 0 mm 2 m/s 747 mmHg 93%
    05:00 +26°C° 0 mm 2 m/s 747 mmHg 92%
    06:00 +26°C° 0 mm 2 m/s 748 mmHg 92%
    07:00 +26°C° 0 mm 2 m/s 748 mmHg 91%
    08:00 +28°C° 0 mm 2 m/s 748 mmHg 85%
    09:00 +29°C° 0 mm 2 m/s 748 mmHg 79%
    10:00 +31°C° 0 mm 2 m/s 749 mmHg 73%
    11:00 +33°C° 0.7 mm 3 m/s 748 mmHg 71%
    12:00 +33°C° 0.7 mm 3 m/s 748 mmHg 70%
    13:00 +34°C° 0.7 mm 3 m/s 748 mmHg 69%
    14:00 +33°C° 0.5 mm 3 m/s 747 mmHg 70%
    15:00 +33°C° 0.5 mm 4 m/s 747 mmHg 71%
    16:00 +33°C° 0.5 mm 4 m/s 746 mmHg 72%
    17:00 +32°C° 0 mm 4 m/s 746 mmHg 76%
    18:00 +29°C° 0 mm 3 m/s 747 mmHg 79%
    19:00 +28°C° 0 mm 3 m/s 747 mmHg 83%
    20:00 +28°C° 0 mm 3 m/s 747 mmHg 85%
    21:00 +27°C° 0 mm 3 m/s 748 mmHg 87%
    22:00 +27°C° 0 mm 3 m/s 748 mmHg 89%
    23:00 +27°C° 0 mm 2 m/s 748 mmHg 89%

    Mâine, 20 Iulie, Sâmbătă

    Timp Temperatura Precipitaţii Vânt Presiune Umiditate
    00:00 +27°C° 0 mm 2 m/s 748 mmHg 90%
    01:00 +27°C° 0 mm 2 m/s 747 mmHg 91%
    02:00 +26°C° 0 mm 2 m/s 747 mmHg 91%
    03:00 +26°C° 0 mm 2 m/s 747 mmHg 91%
    04:00 +26°C° 0 mm 2 m/s 746 mmHg 91%
    05:00 +26°C° 0 mm 2 m/s 747 mmHg 91%
    06:00 +27°C° 0 mm 2 m/s 747 mmHg 91%
    07:00 +27°C° 0 mm 2 m/s 747 mmHg 90%
    08:00 +28°C° 0.5 mm 2 m/s 747 mmHg 85%
    09:00 +29°C° 0.5 mm 3 m/s 748 mmHg 81%
    10:00 +31°C° 0.5 mm 3 m/s 748 mmHg 76%
    11:00 +31°C° 0 mm 3 m/s 748 mmHg 73%
    12:00 +33°C° 0 mm 3 m/s 747 mmHg 69%
    13:00 +34°C° 0 mm 3 m/s 747 mmHg 66%
    14:00 +34°C° 0.1 mm 3 m/s 746 mmHg 67%
    15:00 +33°C° 0.1 mm 4 m/s 746 mmHg 69%
    16:00 +33°C° 0.1 mm 4 m/s 745 mmHg 71%
    17:00 +32°C° 0 mm 4 m/s 746 mmHg 74%
    18:00 +30°C° 0 mm 4 m/s 746 mmHg 78%
    19:00 +28°C° 0 mm 4 m/s 746 mmHg 82%
    20:00 +28°C° 0 mm 3 m/s 747 mmHg 83%
    21:00 +28°C° 0 mm 3 m/s 747 mmHg 85%
    22:00 +27°C° 0 mm 3 m/s 748 mmHg 86%
    23:00 +27°C° 0 mm 2 m/s 747 mmHg 87%

    Poimâine, 21 Iulie, Duminică

    Timp Temperatura Precipitaţii Vânt Presiune Umiditate
    00:00 +27°C° 0 mm 2 m/s 747 mmHg 88%
    01:00 +27°C° 0 mm 1 m/s 747 mmHg 89%
    02:00 +27°C° 0 mm 1 m/s 747 mmHg 90%
    03:00 +27°C° 0 mm 1 m/s 746 mmHg 90%
    04:00 +26°C° 0 mm 2 m/s 746 mmHg 91%
    05:00 +27°C° 0.1 mm 1 m/s 747 mmHg 90%
    06:00 +27°C° 0.1 mm 1 m/s 747 mmHg 90%
    07:00 +27°C° 0.1 mm 1 m/s 747 mmHg 89%
    08:00 +28°C° 0.6 mm 1 m/s 747 mmHg 84%
    09:00 +30°C° 0.6 mm 1 m/s 748 mmHg 79%
    10:00 +31°C° 0.6 mm 1 m/s 748 mmHg 74%
    11:00 +31°C° 0.3 mm 1 m/s 748 mmHg 73%
    12:00 +32°C° 0.3 mm 2 m/s 748 mmHg 72%
    13:00 +32°C° 0.3 mm 2 m/s 747 mmHg 72%
    14:00 +31°C° 2.6 mm 2 m/s 747 mmHg 76%
    15:00 +30°C° 2.6 mm 2 m/s 747 mmHg 81%
    16:00 +29°C° 2.6 mm 1 m/s 746 mmHg 85%
    17:00 +29°C° 1.3 mm 2 m/s 746 mmHg 87%
    18:00 +28°C° 1.3 mm 2 m/s 747 mmHg 89%
    19:00 +27°C° 1.3 mm 2 m/s 747 mmHg 92%
    20:00 +27°C° 0 mm 2 m/s 748 mmHg 93%
    21:00 +26°C° 0 mm 2 m/s 748 mmHg 94%
    22:00 +26°C° 0 mm 1 m/s 748 mmHg 95%
    23:00 +26°C° 0.1 mm 1 m/s 748 mmHg 94%

    22 Iulie, Luni

    Timp Temperatura Precipitaţii Vânt Presiune Umiditate
    00:00 +26°C° 0.1 mm 1 m/s 748 mmHg 94%
    01:00 +26°C° 0.1 mm 2 m/s 748 mmHg 93%
    02:00 +26°C° 0 mm 2 m/s 748 mmHg 93%
    03:00 +26°C° 0 mm 1 m/s 747 mmHg 93%
    04:00 +26°C° 0 mm 1 m/s 747 mmHg 93%
    05:00 +26°C° 0.7 mm 1 m/s 747 mmHg 93%
    06:00 +26°C° 0.7 mm 1 m/s 748 mmHg 93%
    07:00 +26°C° 0.7 mm 1 m/s 748 mmHg 93%
    08:00 +27°C° 0.7 mm 1 m/s 749 mmHg 90%
    09:00 +28°C° 0.7 mm 1 m/s 749 mmHg 87%
    10:00 +29°C° 0.7 mm 1 m/s 749 mmHg 84%
    11:00 +29°C° 1.2 mm 1 m/s 749 mmHg 81%
    12:00 +30°C° 1.2 mm 2 m/s 749 mmHg 79%
    13:00 +31°C° 1.2 mm 2 m/s 748 mmHg 77%
    14:00 +30°C° 3.6 mm 2 m/s 748 mmHg 81%
    15:00 +29°C° 3.6 mm 1 m/s 748 mmHg 86%
    16:00 +28°C° 3.6 mm 1 m/s 747 mmHg 91%
    17:00 +27°C° 5.9 mm 2 m/s 748 mmHg 93%
    18:00 +26°C° 5.9 mm 2 m/s 748 mmHg 95%
    19:00 +26°C° 5.9 mm 2 m/s 748 mmHg 97%
    20:00 +26°C° 0.5 mm 2 m/s 749 mmHg 96%
    21:00 +26°C° 0.5 mm 1 m/s 749 mmHg 95%
    22:00 +26°C° 0.5 mm 1 m/s 750 mmHg 95%
    23:00 +26°C° 0 mm 1 m/s 750 mmHg 94%

    23 Iulie, Marţi

    Timp Temperatura Precipitaţii Vânt Presiune Umiditate
    00:00 +26°C° 0 mm 1 m/s 749 mmHg 93%
    01:00 +26°C° 0 mm 2 m/s 749 mmHg 93%
    02:00 +25°C° 0.1 mm 1 m/s 749 mmHg 93%
    03:00 +25°C° 0.1 mm 1 m/s 749 mmHg 93%
    04:00 +25°C° 0.1 mm 1 m/s 748 mmHg 93%
    05:00 +25°C° 0.4 mm 1 m/s 748 mmHg 93%
    06:00 +25°C° 0.4 mm 1 m/s 749 mmHg 93%
    07:00 +25°C° 0.4 mm 1 m/s 749 mmHg 92%
    08:00 +26°C° 0.3 mm 1 m/s 749 mmHg 90%
    09:00 +27°C° 0.3 mm 1 m/s 750 mmHg 88%
    10:00 +28°C° 0.3 mm 1 m/s 750 mmHg 86%
    11:00 +28°C° 1.4 mm 1 m/s 750 mmHg 86%
    12:00 +28°C° 1.4 mm 1 m/s 749 mmHg 86%
    13:00 +28°C° 1.4 mm 1 m/s 749 mmHg 86%
    14:00 +28°C° 1.3 mm 1 m/s 749 mmHg 88%
    15:00 +27°C° 1.3 mm 2 m/s 748 mmHg 90%
    16:00 +27°C° 1.3 mm 2 m/s 748 mmHg 92%
    17:00 +26°C° 0.4 mm 2 m/s 748 mmHg 92%
    18:00 +26°C° 0.4 mm 2 m/s 749 mmHg 93%
    19:00 +26°C° 0.4 mm 2 m/s 749 mmHg 93%
    20:00 +26°C° 0.5 mm 2 m/s 749 mmHg 93%
    21:00 +25°C° 0.5 mm 2 m/s 750 mmHg 93%
    22:00 +25°C° 0.5 mm 2 m/s 750 mmHg 94%
    23:00 +25°C° 0 mm 2 m/s 750 mmHg 94%

    24 Iulie, Miercuri

    Timp Temperatura Precipitaţii Vânt Presiune Umiditate
    00:00 +25°C° 0 mm 2 m/s 749 mmHg 94%
    01:00 +25°C° 0 mm 2 m/s 749 mmHg 94%
    02:00 +25°C° 0 mm 1 m/s 749 mmHg 94%
    03:00 +24°C° 0 mm 1 m/s 748 mmHg 93%
    04:00 +24°C° 0 mm 1 m/s 748 mmHg 93%
    05:00 +25°C° 0 mm 1 m/s 748 mmHg 92%
    06:00 +25°C° 0 mm 1 m/s 749 mmHg 91%
    07:00 +25°C° 0 mm 1 m/s 749 mmHg 91%
    08:00 +27°C° 0 mm 2 m/s 749 mmHg 85%
    09:00 +28°C° 0 mm 2 m/s 749 mmHg 80%
    10:00 +30°C° 0 mm 2 m/s 750 mmHg 74%
    11:00 +30°C° 2 mm 2 m/s 749 mmHg 75%
    12:00 +30°C° 2 mm 2 m/s 749 mmHg 75%
    13:00 +31°C° 2 mm 1 m/s 749 mmHg 76%
    14:00 +30°C° 2.6 mm 1 m/s 748 mmHg 79%
    15:00 +30°C° 2.6 mm 1 m/s 748 mmHg 81%
    16:00 +29°C° 2.6 mm 1 m/s 747 mmHg 84%
    17:00 +28°C° 1.3 mm 1 m/s 748 mmHg 87%
    18:00 +27°C° 1.3 mm 1 m/s 748 mmHg 89%
    19:00 +26°C° 1.3 mm 1 m/s 748 mmHg 92%
    20:00 +26°C° 0.3 mm 1 m/s 749 mmHg 93%
    21:00 +26°C° 0.3 mm 1 m/s 749 mmHg 94%
    22:00 +26°C° 0.3 mm 1 m/s 749 mmHg 94%
    23:00 +26°C° 0 mm 1 m/s 749 mmHg 94%
    Arată mai mult